Current weather by "City, St" or "zip code"  
 

Current Conditions: Presque Isle, ME

Fair


14.0 F

Last Updated on Oct 31 2020, 5:56 am EDT
Humidity: 88%
Wind Speed: N 0.0 mph
Barometer 30.31 in
Dewpoint: 10.9 F
Visibility: 10.00 mi
Precip: --
Heat Index: NA
Wind Chill: NA
Current conditions at:

Presque Isle, ME (KPQI)

Lat: 46.68333 Lon: 68.05

Local Radar Image active severe weather and emergency alerts image image weather storm and storm spotter reports image weather observation monitoring service image
Local
Radar
Active
Alerts
Storm Reports Obs
Monitoring

Sign-up For Email & Text Message Weather Alert Notification Services



Advertise Here

Observation History for Presque Isle, ME


Time Wind
(mph)
Vis
(mi)
Weather Precip (in) Temperature (F) Relative
Humidity
Wind
Chill
(F)
Heat
Index
(F)
Pressure
Air Dwpt altimeter
(in)
sea level
(mb)
Rmks
5:56 am EDT N 0.0 10.00 Fair -- 14.0 10.9 88% NA NA 30.31 1029.9
4:56 am EDT N 0.0 10.00 Fair -- 15.0 14.0 95% NA NA 30.27 1028.8
3:56 am EDT N 0.0 10.00 Fair -- 14.0 12.0 92% NA NA 30.25 1027.8
2:56 am EDT N 0.0 10.00 Fair -- 19.0 17.1 92% NA NA 30.24 1027.5
1:56 am EDT W 4.6 10.00 Fair -- 21.0 18.0 88% 15 NA 30.22 1027.0
12:56 am EDT N 0.0 10.00 Fair -- 21.0 18.0 88% NA NA 30.20 1026.3
11:56 pm EDT NW 8.1 10.00 Fair -- 25.0 19.0 78% 16 NA 30.18 1025.3
10:56 pm EDT NW 4.6 10.00 Fair -- 25.0 19.0 78% 19 NA 30.16 1024.6
9:56 pm EDT NW 4.6 10.00 Fair -- 26.0 19.9 78% 20 NA 30.13 1023.7
8:56 pm EDT NW 4.6 10.00 Fair -- 27.0 19.0 72% 22 NA 30.11 1022.9
7:56 pm EDT N 10.4 10.00 Fair -- 27.0 19.0 72% 17 NA 30.08 1022.2
6:56 pm EDT N 11.5 10.00 Fair -- 29.0 19.0 66% 19 NA 30.06 1021.3
5:56 pm EDT NW 9.2 10.00 Fair -- 31.0 19.9 64% 23 NA 30.04 1020.5
4:56 pm EDT N 8.1 10.00 Fair -- 33.0 19.0 56% 26 NA 30.02 1019.7
3:56 pm EDT NW 16.1 10.00 Fair -- 34.0 18.0 52% 24 NA 30.00 1019.1
2:56 pm EDT N 10.4 10.00 Fair -- 33.0 18.0 54% 25 NA 29.99 1018.9
1:56 pm EDT N 13.8 10.00 Fair -- 33.0 18.0 54% 23 NA 29.99 1018.8
12:56 pm EDT N 10.4 10.00 Fair -- 31.0 19.0 61% 22 NA 29.99 1019.0
11:56 am EDT N 15.0 10.00 Fair -- 30.0 18.0 61% 19 NA 30.00 1019.1
10:56 am EDT N 16.1 10.00 Fair -- 28.0 18.0 66% 16 NA 30.01 1019.4
9:56 am EDT N 13.8 10.00 Fair -- 26.0 17.1 69% 14 NA 30.03 1020.2
8:56 am EDT N 11.5 10.00 Fair -- 24.0 16.0 71% 13 NA 30.00 1019.4
7:56 am EDT N 8.1 10.00 Fair -- 22.0 16.0 78% 13 NA 29.98 1018.6
6:56 am EDT N 11.5 10.00 Fair -- 23.0 16.0 74% 12 NA 29.98 1018.4

Regional Weather Observation


Presque Isle, ME (KPQI)

Fair
14.0 F

Frenchville, Northern Aroostook Regional Airport, ME (KFVE)

Fair
17.0 F

Houlton, Houlton International Airport, ME (KHUL)

Fair
16.0 F

Clayton Lake, ME (K40B)

NULL
10.0 F

Millinocket, Millinocket Municipal Airport, ME (KMLT)

Fair
20.0 F

Greenville, ME (KGNR)

NULL
24.0 F